Time,TemperatureF,DewpointF,PressureIn,WindDirection,WindDirectionDegrees,WindSpeedMPH,WindSpeedGustMPH,Humidity,HourlyPrecipIn,Conditions,Clouds,dailyrainin,SoftwareType,DateUTC
2013-04-24 00:13:00,47.8,44.1,29.62,North,0,4.2,-999.0,87,-99.99,,,0.00,Acu-Link.com,2013-04-24 07:13:00,
2013-04-24 00:29:00,47.7,44.0,29.62,North,0,5.3,-999.0,87,-99.99,,,0.00,Acu-Link.com,2013-04-24 07:29:00,
2013-04-24 00:44:00,47.7,44.0,29.62,North,0,3.7,-999.0,87,-99.99,,,0.00,Acu-Link.com,2013-04-24 07:44:00,
2013-04-24 00:59:00,47.8,44.1,29.62,North,0,1.7,-999.0,87,-99.99,,,0.00,Acu-Link.com,2013-04-24 07:59:00,
2013-04-24 01:14:00,47.8,44.1,29.62,North,0,2.7,-999.0,87,-99.99,,,0.00,Acu-Link.com,2013-04-24 08:14:00,
2013-04-24 01:29:00,47.5,43.8,29.61,North,0,3.2,-999.0,87,-99.99,,,0.00,Acu-Link.com,2013-04-24 08:29:00,
2013-04-24 01:44:00,47.3,43.6,29.61,North,0,2.7,-999.0,87,-99.99,,,0.00,Acu-Link.com,2013-04-24 08:44:00,
2013-04-24 01:59:00,47.1,43.7,29.60,North,0,3.2,-999.0,88,-99.99,,,0.00,Acu-Link.com,2013-04-24 08:59:00,
2013-04-24 02:14:00,46.9,43.5,29.59,North,0,2.2,-999.0,88,-99.99,,,0.00,Acu-Link.com,2013-04-24 09:14:00,
2013-04-24 02:29:00,46.9,43.8,29.59,North,0,2.2,-999.0,89,-99.99,,,0.00,Acu-Link.com,2013-04-24 09:29:00,
2013-04-24 02:44:00,46.9,43.8,29.58,North,0,2.7,-999.0,89,-99.99,,,0.00,Acu-Link.com,2013-04-24 09:44:00,
2013-04-24 03:00:00,46.4,43.3,29.58,North,0,2.2,-999.0,89,-99.99,,,0.00,Acu-Link.com,2013-04-24 10:00:00,
2013-04-24 03:15:00,46.4,43.3,29.57,North,0,2.7,-999.0,89,-99.99,,,0.00,Acu-Link.com,2013-04-24 10:15:00,
2013-04-24 03:30:00,46.4,43.3,29.57,North,0,1.7,-999.0,89,-99.99,,,0.00,Acu-Link.com,2013-04-24 10:30:00,
2013-04-24 03:45:00,46.4,43.3,29.58,North,0,2.2,-999.0,89,-99.99,,,0.00,Acu-Link.com,2013-04-24 10:45:00,
2013-04-24 04:00:00,46.2,43.4,29.57,North,0,3.7,-999.0,90,-99.99,,,0.00,Acu-Link.com,2013-04-24 11:00:00,
2013-04-24 04:15:00,46.0,43.2,29.56,North,0,1.7,-999.0,90,-99.99,,,0.00,Acu-Link.com,2013-04-24 11:15:00,
2013-04-24 04:31:00,46.0,43.5,29.57,North,0,1.1,-999.0,91,-99.99,,,0.00,Acu-Link.com,2013-04-24 11:31:00,
2013-04-24 04:46:00,46.2,43.7,29.56,North,0,3.7,-999.0,91,-99.99,,,0.00,Acu-Link.com,2013-04-24 11:46:00,
2013-04-24 05:01:00,46.2,43.7,29.56,North,0,0.0,-999.0,91,-99.99,,,0.00,Acu-Link.com,2013-04-24 12:01:00,
2013-04-24 05:16:00,46.2,43.7,29.57,North,0,1.1,-999.0,91,-99.99,,,0.00,Acu-Link.com,2013-04-24 12:16:00,
2013-04-24 05:31:00,46.2,43.7,29.57,North,0,1.7,-999.0,91,-99.99,,,0.00,Acu-Link.com,2013-04-24 12:31:00,
2013-04-24 05:46:00,46.2,43.7,29.56,North,0,1.7,-999.0,91,-99.99,,,0.00,Acu-Link.com,2013-04-24 12:46:00,
2013-04-24 06:01:00,46.4,43.9,29.57,North,0,0.0,-999.0,91,-99.99,,,0.00,Acu-Link.com,2013-04-24 13:01:00,
2013-04-24 06:16:00,46.6,44.1,29.57,North,0,1.1,-999.0,91,-99.99,,,0.00,Acu-Link.com,2013-04-24 13:16:00,
2013-04-24 06:31:00,46.6,44.1,29.58,North,0,1.1,-999.0,91,-99.99,,,0.00,Acu-Link.com,2013-04-24 13:31:00,
2013-04-24 06:47:00,46.6,44.1,29.58,North,0,1.7,-999.0,91,-99.99,,,0.00,Acu-Link.com,2013-04-24 13:47:00,
2013-04-24 07:02:00,46.8,44.3,29.57,North,0,2.2,-999.0,91,-99.99,,,0.00,Acu-Link.com,2013-04-24 14:02:00,
2013-04-24 07:17:00,47.3,44.8,29.58,North,0,1.7,-999.0,91,-99.99,,,0.00,Acu-Link.com,2013-04-24 14:17:00,
2013-04-24 07:32:00,47.7,44.9,29.59,North,0,2.2,-999.0,90,-99.99,,,0.00,Acu-Link.com,2013-04-24 14:32:00,
2013-04-24 07:47:00,48.0,44.9,29.59,North,0,3.2,-999.0,89,-99.99,,,0.00,Acu-Link.com,2013-04-24 14:47:00,
2013-04-24 08:02:00,48.4,44.7,29.59,North,0,4.2,-999.0,87,-99.99,,,0.00,Acu-Link.com,2013-04-24 15:02:00,
2013-04-24 08:17:00,50.0,44.7,29.60,North,0,3.7,-999.0,82,-99.99,,,0.00,Acu-Link.com,2013-04-24 15:17:00,
2013-04-24 08:32:00,49.8,43.9,29.61,North,0,5.8,-999.0,80,-99.99,,,0.00,Acu-Link.com,2013-04-24 15:32:00,
2013-04-24 08:47:00,50.4,44.8,29.61,SW,225,4.7,-999.0,81,-99.99,,,0.00,Acu-Link.com,2013-04-24 15:47:00,
2013-04-24 09:03:00,50.0,44.4,29.60,North,0,4.2,-999.0,81,-99.99,,,0.00,Acu-Link.com,2013-04-24 16:03:00,
2013-04-24 09:18:00,50.7,44.8,29.61,SW,225,4.2,-999.0,80,-99.99,,,0.00,Acu-Link.com,2013-04-24 16:18:00,
2013-04-24 09:33:00,51.6,45.0,29.61,North,0,3.2,-999.0,78,-99.99,,,0.00,Acu-Link.com,2013-04-24 16:33:00,
2013-04-24 09:48:00,52.3,45.0,29.61,North,0,4.2,-999.0,76,-99.99,,,0.00,Acu-Link.com,2013-04-24 16:48:00,
2013-04-24 10:03:00,52.3,45.0,29.62,North,0,3.7,-999.0,76,-99.99,,,0.00,Acu-Link.com,2013-04-24 17:03:00,
2013-04-24 10:18:00,53.1,45.4,29.62,North,0,4.7,-999.0,75,-99.99,,,0.00,Acu-Link.com,2013-04-24 17:18:00,
2013-04-24 10:33:00,54.0,45.5,29.62,North,0,4.7,-999.0,73,-99.99,,,0.00,Acu-Link.com,2013-04-24 17:33:00,
2013-04-24 10:48:00,53.4,45.3,29.63,ESE,112,6.8,-999.0,74,-99.99,,,0.00,Acu-Link.com,2013-04-24 17:48:00,
2013-04-24 11:03:00,54.3,45.5,29.63,North,0,5.3,-999.0,72,-99.99,,,0.00,Acu-Link.com,2013-04-24 18:03:00,
2013-04-24 11:19:00,55.6,46.3,29.63,North,0,3.7,-999.0,71,-99.99,,,0.00,Acu-Link.com,2013-04-24 18:19:00,
2013-04-24 11:34:00,55.4,46.5,29.63,SW,225,3.2,-999.0,72,-99.99,,,0.00,Acu-Link.com,2013-04-24 18:34:00,
2013-04-24 11:49:00,54.0,45.9,29.63,North,0,6.8,-999.0,74,-99.99,,,0.00,Acu-Link.com,2013-04-24 18:49:00,
2013-04-24 12:04:00,54.7,46.2,29.63,NNW,337,7.3,-999.0,73,-99.99,,,0.00,Acu-Link.com,2013-04-24 19:04:00,
2013-04-24 12:19:00,55.0,46.5,29.63,NNW,337,4.7,-999.0,73,-99.99,,,0.00,Acu-Link.com,2013-04-24 19:19:00,
2013-04-24 12:34:00,55.4,46.5,29.62,North,0,7.3,-999.0,72,-99.99,,,0.00,Acu-Link.com,2013-04-24 19:34:00,
2013-04-24 12:49:00,55.6,46.7,29.63,NE,45,5.3,-999.0,72,-99.99,,,0.00,Acu-Link.com,2013-04-24 19:49:00,
2013-04-24 13:04:00,54.7,46.6,29.63,North,0,5.3,-999.0,74,-99.99,,,0.00,Acu-Link.com,2013-04-24 20:04:00,
2013-04-24 13:19:00,55.9,47.0,29.62,NNW,337,4.7,-999.0,72,-99.99,,,0.00,Acu-Link.com,2013-04-24 20:19:00,
2013-04-24 13:35:00,55.6,46.7,29.63,SSW,202,3.7,-999.0,72,-99.99,,,0.00,Acu-Link.com,2013-04-24 20:35:00,
2013-04-24 13:50:00,55.9,47.0,29.61,North,0,2.7,-999.0,72,-99.99,,,0.00,Acu-Link.com,2013-04-24 20:50:00,
2013-04-24 14:05:00,55.6,47.1,29.62,SW,225,3.2,-999.0,73,-99.99,,,0.00,Acu-Link.com,2013-04-24 21:05:00,
2013-04-24 14:20:00,55.2,47.1,29.61,North,0,5.8,-999.0,74,-99.99,,,0.00,Acu-Link.com,2013-04-24 21:20:00,
2013-04-24 14:35:00,55.0,46.9,29.62,NNW,337,4.2,-999.0,74,-99.99,,,0.00,Acu-Link.com,2013-04-24 21:35:00,
2013-04-24 14:50:00,55.0,46.9,29.61,SSW,202,6.3,-999.0,74,-99.99,,,0.00,Acu-Link.com,2013-04-24 21:50:00,
2013-04-24 15:05:00,54.9,47.1,29.61,NNW,337,3.7,-999.0,75,-99.99,,,0.00,Acu-Link.com,2013-04-24 22:05:00,
2013-04-24 15:20:00,54.7,47.3,29.61,WSW,247,5.3,-999.0,76,-99.99,,,0.00,Acu-Link.com,2013-04-24 22:20:00,
2013-04-24 15:35:00,54.5,47.1,29.60,SSW,202,6.3,-999.0,76,-99.99,,,0.00,Acu-Link.com,2013-04-24 22:35:00,
2013-04-24 15:51:00,54.0,47.0,29.60,North,0,5.3,-999.0,77,-99.99,,,0.00,Acu-Link.com,2013-04-24 22:51:00,
2013-04-24 16:06:00,53.6,46.9,29.60,NNW,337,3.7,-999.0,78,-99.99,,,0.00,Acu-Link.com,2013-04-24 23:06:00,
2013-04-24 16:21:00,53.8,47.1,29.60,SW,225,3.7,-999.0,78,-99.99,,,0.00,Acu-Link.com,2013-04-24 23:21:00,
2013-04-24 16:36:00,53.6,47.2,29.60,NW,315,6.3,-999.0,79,-99.99,,,0.00,Acu-Link.com,2013-04-24 23:36:00,
2013-04-24 16:51:00,53.8,47.4,29.60,North,0,5.8,-999.0,79,-99.99,,,0.00,Acu-Link.com,2013-04-24 23:51:00,
2013-04-24 17:06:00,53.2,46.9,29.59,North,0,2.2,-999.0,79,-99.99,,,0.00,Acu-Link.com,2013-04-25 00:06:00,
2013-04-24 17:21:00,53.1,46.8,29.61,NNW,337,3.2,-999.0,79,-99.99,,,0.00,Acu-Link.com,2013-04-25 00:21:00,
2013-04-24 17:36:00,52.7,46.7,29.60,North,0,6.8,-999.0,80,-99.99,,,0.00,Acu-Link.com,2013-04-25 00:36:00,
2013-04-24 17:51:00,52.9,47.2,29.60,North,0,4.2,-999.0,81,-99.99,,,0.00,Acu-Link.com,2013-04-25 00:51:00,
2013-04-24 18:06:00,52.7,47.7,29.61,North,0,3.7,-999.0,83,-99.99,,,0.00,Acu-Link.com,2013-04-25 01:06:00,
2013-04-24 18:22:00,52.5,47.8,29.61,ENE,67,8.3,-999.0,84,-99.99,,,0.00,Acu-Link.com,2013-04-25 01:22:00,
2013-04-24 18:37:00,52.5,47.8,29.60,SSW,202,5.3,-999.0,84,-99.99,,,0.00,Acu-Link.com,2013-04-25 01:37:00,
2013-04-24 18:52:00,52.2,47.8,29.61,North,0,3.7,-999.0,85,-99.99,,,0.00,Acu-Link.com,2013-04-25 01:52:00,
2013-04-24 19:07:00,52.2,47.8,29.61,SW,225,8.3,-999.0,85,-99.99,,,0.00,Acu-Link.com,2013-04-25 02:07:00,
2013-04-24 19:22:00,52.0,47.6,29.62,North,0,3.7,-999.0,85,-99.99,,,0.00,Acu-Link.com,2013-04-25 02:22:00,
2013-04-24 19:37:00,52.0,47.6,29.62,SSW,202,5.8,-999.0,85,-99.99,,,0.00,Acu-Link.com,2013-04-25 02:37:00,
2013-04-24 19:52:00,51.8,47.4,29.63,North,0,3.7,-999.0,85,-99.99,,,0.00,Acu-Link.com,2013-04-25 02:52:00,
2013-04-24 20:07:00,51.6,47.6,29.63,North,0,3.2,-999.0,86,-99.99,,,0.00,Acu-Link.com,2013-04-25 03:07:00,
2013-04-24 20:22:00,51.4,47.4,29.64,North,0,5.3,-999.0,86,-99.99,,,0.00,Acu-Link.com,2013-04-25 03:22:00,
2013-04-24 20:38:00,51.4,47.4,29.64,North,0,2.7,-999.0,86,-99.99,,,0.00,Acu-Link.com,2013-04-25 03:38:00,
2013-04-24 20:53:00,51.1,47.1,29.65,North,0,1.7,-999.0,86,-99.99,,,0.00,Acu-Link.com,2013-04-25 03:53:00,
2013-04-24 21:08:00,51.1,47.1,29.65,North,0,3.2,-999.0,86,-99.99,,,0.00,Acu-Link.com,2013-04-25 04:08:00,
2013-04-24 21:23:00,51.1,46.7,29.65,North,0,5.8,-999.0,85,-99.99,,,0.00,Acu-Link.com,2013-04-25 04:23:00,
2013-04-24 21:38:00,50.9,46.6,29.66,North,0,3.7,-999.0,85,-99.99,,,0.00,Acu-Link.com,2013-04-25 04:38:00,
2013-04-24 21:53:00,50.9,46.6,29.66,North,0,3.7,-999.0,85,-99.99,,,0.00,Acu-Link.com,2013-04-25 04:53:00,
2013-04-24 22:09:00,50.9,46.6,29.66,North,0,3.7,-999.0,85,-99.99,,,0.00,Acu-Link.com,2013-04-25 05:09:00,
2013-04-24 22:24:00,50.7,46.4,29.67,North,0,3.7,-999.0,85,-99.99,,,0.00,Acu-Link.com,2013-04-25 05:24:00,
2013-04-24 22:39:00,50.7,46.4,29.67,North,0,3.2,-999.0,85,-99.99,,,0.00,Acu-Link.com,2013-04-25 05:39:00,
2013-04-24 22:54:00,50.5,46.5,29.67,North,0,3.7,-999.0,86,-99.99,,,0.00,Acu-Link.com,2013-04-25 05:54:00,
2013-04-24 23:09:00,50.4,46.4,29.67,North,0,3.7,-999.0,86,-99.99,,,0.00,Acu-Link.com,2013-04-25 06:09:00,
2013-04-24 23:24:00,50.4,46.4,29.67,SW,225,5.8,-999.0,86,-99.99,,,0.00,Acu-Link.com,2013-04-25 06:24:00,
2013-04-24 23:39:00,50.2,46.2,29.67,SW,225,2.7,-999.0,86,-99.99,,,0.00,Acu-Link.com,2013-04-25 06:39:00,
2013-04-24 23:54:00,50.0,46.3,29.67,SW,225,5.8,-999.0,87,-99.99,,,0.00,Acu-Link.com,2013-04-25 06:54:00,